Regional Weather Roundup
Issued by NWS Midland/Odessa, TX

Skip options and go directly to product.
Home | Oldest Version | Next Version | Current Version | All | Text Only | Save Text | Print | Product List | Glossary On

Skip product version selection by date and time.   
572
ASUS44 KMAF 240001
RWRMAF
MIDLAND AREA WEATHER ROUNDUP
NATIONAL WEATHER SERVICE MIDLAND TX
700 PM CDT FRI SEP 23 2016

...IN SOUTHWEST TEXAS AND SOUTHEAST NEW MEXICO...

CITY           SKY/WX    TMP DP  RH WIND       PRES   REMARKS
ALPINE         CLEAR     83  51  32 S8        30.04S
ANDREWS        NOT AVBL
ARTESIA        MOSUNNY   86  57  37 SW9       29.86S
BIG SPRING     MOCLDY    87  59  38 SE12      29.91S
CARLSBAD       MOSUNNY   87  58  37 S6        29.84S
DRYDEN           N/A     87  66  49 E14       29.87R
FORT STOCKTON  CLEAR     90  52  27 S17       29.88S
GUAD PASS      SUNNY     82  49  31 W22       30.02F
HOBBS          CLEAR     82  57  42 SE13      29.91S
MARFA          SUNNY    N/A N/A N/A S10       30.02S
MIDLAND AIRPK  PTCLDY    90  56  31 S16       29.90R
MIDLAND INTL   CLEAR     88  59  37 S17G25    29.89S
ODESSA         CLEAR     88  59  37 S20G26    29.90S
PECOS          PTCLDY    93  52  25 SW8       29.82S
PRESIDIO       FAIR      94  49  21 E7        29.84S
SEMINOLE       CLEAR     84  57  39 S13       29.92S
SNYDER           N/A     86  64  48 CALM      29.91R
WINK           MOCLDY    91  55  29 SE16G22   29.83S
$$
...OTHER STATIONS IN TEXAS...

CITY           SKY/WX    TMP DP  RH WIND       PRES   REMARKS
ABILENE        MOCLDY    85  65  51 SE12      29.90S
AMARILLO       CLEAR     82  59  45 S29G36    29.90S
AUSTIN         PTCLDY    87  73  62 SE13      29.91R
BROWNSVILLE    CLEAR     88  74  63 SE15      29.88S
CORPUS CHRISTI MOCLDY    88  75  65 SE20      29.88R
DALLAS FTW     PTCLDY    91  64  40 S12       29.89F
DEL RIO        CLEAR     90  66  45 SE9       29.83R
EL PASO        MOSUNNY   89  24   9 W16G30    29.89F
HOUSTON INT    CLOUDY    84  74  71 SE12      29.95S
LUBBOCK        PTCLDY    84  60  44 S17       29.91S
SAN ANGELO     MOCLDY    90  62  39 SE14      29.89R
SAN ANTONIO    PTCLDY    89  69  51 SE17      29.90F
WACO           PTCLDY    90  68  48 SE13      29.90S
WICHITA FALLS  NOT AVBL
$$
...OTHER LOCATIONS IN NEW MEXICO...

CITY           SKY/WX    TMP DP  RH WIND       PRES   REMARKS
ALAMAGORDO     SUNNY     86  32  14 SW16G23   29.93R
ALBUQUERQUE    CLOUDY    62  42  47 VRB7      30.06S
CANNON AFB     MOCLDY    83  56  40 S24       29.90R
CLOVIS         PTCLDY    81  55  41 S17G25    29.91R
HOLLOMAN AFB   SUNNY     86  38  18 W14       29.90R
ROSWELL        SUNNY     86  52  30 S12       29.86R
RUIDOSO        SUNNY     72  28  20 W21       30.10R
SANTA FE       CLOUDY    52  38  58 N20G25    30.13R
TRUTH OR CONSE MOSUNNY   81  35  19 W13       29.95R
TUCUMCARI      CLEAR     87  51  28 S26G37    29.83R
$$

USA.gov is the U.S. government's official web portal to all federal, state and local government web resources and services.